カタログに戻る

SL-16 DEB

運用中LEO
NORAD 22619·DEBRIS·🇷🇺 Russia

打ち上げ Mar 26, 1993 から Baikonur Cosmodrome

Loading…

次のパス (今後24時間)

TLE

最新Source: Space-Track

元期: Sep 14, 2026, 11:15 UTC

1 22619U 93016AD  26257.46909315 -.00000026  00000-0  15343-4 0  9997
2 22619  70.9992  65.8882 0185621  16.7470  13.5177 13.73896122677368

AllMySatでSL-16 DEBをリアルタイム追跡

Download on the App Store